1287014434326,16.6222
1287014494326,16.6016
1287014554326,16.5561
1287014614326,16.6572
1287014674326,16.6281
1287014734326,16.6333
1287014794326,16.6149
1287014854326,16.6460
1287014914326,16.6498
1287014974326,16.5440
1287015034326,16.6056
1287015094326,16.6227
1287015154326,16.6162
1287015214326,16.6263
1287015274326,16.5716
1287015334326,16.6008
1287015394326,16.6593
1287015454326,16.6148
1287015514326,16.6127
1287015574326,16.6223
1287015634326,16.6548
1287015694326,16.6633
1287015754326,16.6294
1287015814326,16.6325
1287015874326,16.6109
1287015934326,16.6580
1287015994326,16.6424
1287016054326,16.6291
1287016114326,16.6182
1287016174326,16.6197
1287016234326,16.6362
1287016294326,16.6873
1287016354326,16.6771
1287016414326,16.5907
1287016474326,16.6023
1287016534326,16.6504
1287016594326,16.5954
1287016654326,16.6166
1287016714326,16.6062
1287016774326,16.6457
1287016834326,16.6812
1287016894326,16.6672
1287016954326,16.6905
1287017014326,16.6314
1287017074326,16.6502
1287017134326,16.6765
1287017194326,16.6353
1287017254326,16.6559
1287017314326,16.6500
1287017374326,16.5646
1287017434326,16.6595
1287017494326,16.6242
1287017554326,16.6776
1287017614326,16.6794
1287017674326,16.6607
1287017734326,16.6567
1287017794326,16.6679
1287017854326,16.6267
1287017914326,16.6320
1287017974326,16.6739
1287018034336,16.5944
1287018094336,16.6611
1287018154336,16.6613
1287018214336,16.6721
1287018274336,16.6740
1287018334336,16.7072
1287018394336,16.6516
1287018454336,16.6811
1287018514336,16.6460
1287018574336,16.5878
1287018634336,16.5829
1287018694336,16.6212
1287018754336,16.6103
1287018814336,16.6065
1287018874336,16.6370
1287018934336,16.6254
1287018994336,16.5968
1287019054336,16.5902
1287019114336,16.6444
1287019174336,16.6218
1287019234336,16.5800
1287019294336,16.6375
1287019354336,16.6264
1287019414336,16.6266
1287019474336,16.6423
1287019534336,16.6124
1287019594336,16.6310
1287019654336,16.6170
1287019714336,16.6117
1287019774336,16.6330
1287019834336,16.5588
1287019894336,16.6558
1287019954336,16.6702
1287020014336,16.6632
1287020074336,16.5875
1287020134336,16.5745
1287020194336,16.6639
1287020254336,16.6914
1287020314336,16.6459
1287020374336,16.6796
1287020434336,16.6251
1287020494336,16.6162
1287020554336,16.6405
1287020614336,16.6446
1287020674336,16.6856
1287020734336,16.6366
1287020794336,16.6040
1287020854336,16.6348
1287020914336,16.7012
1287020974336,16.6375
1287021034336,16.6483
1287021094336,16.6606
1287021154336,16.6312
1287021214336,16.6404
1287021274336,16.6557
1287021334336,16.6294
1287021394336,16.6264
1287021454336,16.6459
1287021514336,16.6538
1287021574336,16.6014
1287021634346,16.6607
1287021694346,16.6540
1287021754346,16.6760
1287021814346,16.6626
1287021874346,16.6647
1287021934346,16.6602
1287021994346,16.6709
1287022054346,16.7047
1287022114346,16.6515
1287022174346,16.7115
1287022234346,16.6401
1287022294346,16.7189
1287022354346,16.6888
1287022414346,16.6867
1287022474346,16.7172
1287022534346,16.6772
1287022594346,16.6457
1287022654346,16.7019
1287022714346,16.6352
1287022774346,16.6108
1287022834346,16.6842
1287022894346,16.7339
1287022954346,16.6519
1287023014346,16.6243
1287023074346,16.6496
1287023134346,16.6334
1287023194346,16.6257
1287023254346,16.7321
1287023314346,16.6304
1287023374346,16.6745
1287023434346,16.7009
1287023494346,16.6194
1287023554346,16.7359
1287023614346,16.6841
1287023674346,16.7069
1287023734346,16.6677
1287023794346,16.6680
1287023854346,16.6735
1287023914346,16.6092
1287023974346,16.6304
1287024034346,16.6884
1287024094346,16.6636
1287024154346,16.6529
1287024214346,16.6707
1287024274346,16.6580
1287024334346,16.6128
1287024394346,16.6815
1287024454346,16.6464
1287024514346,16.6636
1287024574346,16.7027
1287024634346,16.6633
1287024694346,16.6859
1287024754346,16.6559
1287024814346,16.6157
1287024874346,16.7191
1287024934346,16.6057
1287024994346,16.6343
1287025054346,16.5909
1287025114346,16.5683
1287025174346,16.6150
1287025234355,16.5595
1287025294355,16.6015
1287025354355,16.6534
1287025414355,16.6321
1287025474355,16.6620
1287025534355,16.6628
1287025594355,16.6546
1287025654355,16.6665
1287025714355,16.5765
1287025774355,16.6773
1287025834355,16.6296
1287025894355,16.6231
1287025954355,16.6207
1287026014355,16.6967
1287026074355,16.7076
1287026134355,16.8103
1287026194355,16.7278
1287026254355,16.6759
1287026314355,16.6738
1287026374355,16.7048
1287026434355,16.6774
1287026494355,16.6352
1287026554355,16.7606
1287026614355,16.6577
1287026674355,16.6241
1287026734355,16.6930
1287026794355,16.6440
1287026854355,16.6593
1287026914355,16.6740
1287026974355,16.6528
1287027034355,16.7174
1287027094355,16.7167
1287027154355,16.6789
1287027214355,16.6397
1287027274355,16.6831
1287027334355,16.6973
1287027394355,16.7066
1287027454355,16.6533
1287027514355,16.6591
1287027574355,16.6240
1287027634355,16.6805
1287027694355,16.6830
1287027754355,16.6334
1287027814355,16.7538
1287027874355,16.6995
1287027934355,16.7043
1287027994355,16.6964
1287028054355,16.6972
1287028114355,16.6719
1287028174355,16.6703
1287028234355,16.7238
1287028294355,16.7063
1287028354355,16.6632
1287028414355,16.7076
1287028474355,16.6873
1287028534355,16.6968
1287028594355,16.7063
1287028654355,16.6861
1287028714355,16.7541
1287028774355,16.7720
1287028834365,16.6442
1287028894365,16.6914
1287028954365,16.6494
1287029014365,16.7062
1287029074365,16.6223
1287029134365,16.6980
1287029194365,16.6678
1287029254365,16.6563
1287029314365,16.6431
1287029374365,16.6493
1287029434365,16.6206
1287029494365,16.6623
1287029554365,16.6963
1287029614365,16.6759
1287029674365,16.6832
1287029734365,16.6864
1287029794365,16.7422
1287029854365,16.7215
1287029914365,16.7344
1287029974365,16.6613
1287030034365,16.6546
1287030094365,16.7258
1287030154365,16.7256
1287030214365,16.7319
1287030274365,16.7762
1287030334365,16.7716
1287030394365,16.7010
1287030454365,16.7659
1287030514365,16.7933
1287030574365,16.7192
1287030634365,16.7510
1287030694365,16.8181
1287030754365,16.7978
1287030814365,16.7575
1287030874365,16.7292
1287030934365,16.7244
1287030994365,16.7595
1287031054365,16.7588
1287031114365,16.7022
1287031174365,16.7530
1287031234365,16.7184
1287031294365,16.7704
1287031354365,16.7428
1287031414365,16.7062
1287031474365,16.7409
1287031534365,16.7562
1287031594365,16.7375
1287031654365,16.7185
1287031714365,16.8050
1287031774365,16.7616
1287031834365,16.7480
1287031894365,16.7175
1287031954365,16.7456
1287032014365,16.7951
1287032074365,16.7306
1287032134365,16.7429
1287032194365,16.7554
1287032254365,16.6354
1287032314365,16.7407
1287032374365,16.7325
1287032434375,16.7808
1287032494375,16.6990
1287032554375,16.7629
1287032614375,16.7075
1287032674375,16.7229
1287032734375,16.7163
1287032794375,16.7515
1287032854375,16.7308
1287032914375,16.7229
1287032974375,16.7668
1287033034375,16.7168
1287033094375,16.7915
1287033154375,16.7291
1287033214375,16.7599
1287033274375,16.7335
1287033334375,16.7536
1287033394375,16.7709
1287033454375,16.7214
1287033514375,16.7289
1287033574375,16.7588
1287033634375,16.7156
1287033694375,16.6872
1287033754375,16.7464
1287033814375,16.7374
1287033874375,16.7504
1287033934375,16.7488
1287033994375,16.7823
1287034054375,16.7600
1287034114375,16.7734
1287034174375,16.7746
1287034234375,16.7533
1287034294375,16.7294
1287034354375,16.7382
1287034414375,16.7747
1287034474375,16.8069
1287034534375,16.7486
1287034594375,16.7902
1287034654375,16.7719
1287034714375,16.7968
1287034774375,16.7766
1287034834375,16.8109
1287034894375,16.7789
1287034954375,16.7878
1287035014375,16.7829
1287035074375,16.8159
1287035134375,16.7584
1287035194375,16.7945
1287035254375,16.8026
1287035314375,16.7726
1287035374375,16.8668
1287035434375,16.7484
1287035494375,16.7822
1287035554375,16.7740
1287035614375,16.7772
1287035674375,16.7872
1287035734375,16.7627
1287035794375,16.7696
1287035854375,16.7509
1287035914375,16.7874
1287035974375,16.7623
1287036034384,16.8537
1287036094384,16.7353
1287036154384,16.8270
1287036214384,16.8018
1287036274384,16.7848
1287036334384,16.7879
1287036394384,16.7826
1287036454384,16.7518
1287036514384,16.7832
1287036574384,16.7988
1287036634384,16.7295
1287036694384,16.7560
1287036754384,16.8185
1287036814384,16.8504
1287036874384,16.8065
1287036934384,16.8362
1287036994384,16.8089
1287037054384,16.8519
1287037114384,16.8096
1287037174384,16.7962
1287037234384,16.8564
1287037294384,16.8063
1287037354384,16.7667
1287037414384,16.7748
1287037474384,16.7106
1287037534384,16.7961
1287037594384,16.8100
1287037654384,16.8281
1287037714384,16.7830
1287037774384,16.8294
1287037834384,16.7854
1287037894384,16.8324
1287037954384,16.7768
1287038014384,16.8513
1287038074384,16.8406
1287038134384,16.7946
1287038194384,16.8407
1287038254384,16.7822
1287038314384,16.8164
1287038374384,16.8643
1287038434384,16.7907
1287038494384,16.8148
1287038554384,16.8065
1287038614384,16.8093
1287038674384,16.7704
1287038734384,16.8196
1287038794384,16.8145
1287038854384,16.8153
1287038914384,16.7945
1287038974384,16.7772
1287039034384,16.7718
1287039094384,16.7613
1287039154384,16.7968
1287039214384,16.7996
1287039274384,16.7576
1287039334384,16.7668
1287039394384,16.7608
1287039454384,16.7966
1287039514384,16.7986
1287039574384,16.7768
1287039634394,16.8088
1287039694394,16.8085
1287039754394,16.8366
1287039814394,16.8016
1287039874394,16.7807
1287039934394,16.7795
1287039994394,16.8178
1287040054394,16.8503
1287040114394,16.8292
1287040174394,16.8023
1287040234394,16.8238
1287040294394,16.8579
1287040354394,16.8374
1287040414394,16.8241
1287040474394,16.7986
1287040534394,16.8771
1287040594394,16.7885
1287040654394,16.8175
1287040714394,16.7858
1287040774394,16.8421
1287040834394,16.8435
1287040894394,16.8454
1287040954394,16.7631
1287041014394,16.7633
1287041074394,16.8306
1287041134394,16.8326
1287041194394,16.8574
1287041254394,16.8063
1287041314394,16.8063
1287041374394,16.8286
1287041434394,16.7871
1287041494394,16.7653
1287041554394,16.7938
1287041614394,16.8154
1287041674394,16.7557
1287041734394,16.7697
1287041794394,16.7876
1287041854394,16.8213
1287041914394,16.8087
1287041974394,16.8220
1287042034394,16.7866
1287042094394,16.8079
1287042154394,16.7993
1287042214394,16.7978
1287042274394,16.8088
1287042334394,16.8100
1287042394394,16.8106
1287042454394,16.8037
1287042514394,16.8446
1287042574394,16.8100
1287042634394,16.8007
1287042694394,16.8107
1287042754394,16.8276
1287042814394,16.8115
1287042874394,16.7915
1287042934394,16.7719
1287042994394,16.8966
1287043054394,16.7784
1287043114394,16.8223
1287043174394,16.7905
1287043234404,16.7668
1287043294404,16.8122
1287043354404,16.8574
1287043414404,16.8174
1287043474404,16.8370
1287043534404,16.8267
1287043594404,16.7903
1287043654404,16.7964
1287043714404,16.8323
1287043774404,16.8434
1287043834404,16.8499
1287043894404,16.8259
1287043954404,16.8309
1287044014404,16.8723
1287044074404,16.8219
1287044134404,16.8686
1287044194404,16.8005
1287044254404,16.8801
1287044314404,16.8628
1287044374404,16.9088
1287044434404,16.8238
1287044494404,16.8235
1287044554404,16.8501
1287044614404,16.8373
1287044674404,16.8622
1287044734404,16.9011
1287044794404,16.8826
1287044854404,16.8793
1287044914404,16.8745
1287044974404,16.8590
1287045034404,16.8230
1287045094404,16.7909
1287045154404,16.8729
1287045214404,16.8740
1287045274404,16.8628
1287045334404,16.8114
1287045394404,16.8039
1287045454404,16.8141
1287045514404,16.8660
1287045574404,16.8244
1287045634404,16.8549
1287045694404,16.8559
1287045754404,16.8813
1287045814404,16.9247
1287045874404,16.8781
1287045934404,16.8561
1287045994404,16.8525
1287046054404,16.8834
1287046114404,16.9006
1287046174404,16.8971
1287046234404,16.8158
1287046294404,16.8890
1287046354404,16.9166
1287046414404,16.8743
1287046474404,16.8811
1287046534404,16.8928
1287046594404,16.8871
1287046654404,16.8806
1287046714404,16.8527
1287046774404,16.9312
1287046834414,16.8664
1287046894414,16.8729
1287046954414,16.8885
1287047014414,16.9136
1287047074414,16.8547
1287047134414,16.8978
1287047194414,16.8832
1287047254414,16.9122
1287047314414,16.8635
1287047374414,16.8569
1287047434414,16.8417
1287047494414,16.9027
1287047554414,16.8595
1287047614414,16.8629
1287047674414,16.8282
1287047734414,16.8734
1287047794414,16.8476
1287047854414,16.8765
1287047914414,16.8485
1287047974414,16.8403
1287048034414,16.8937
1287048094414,16.8883
1287048154414,16.8441
1287048214414,16.8478
1287048274414,16.8198
1287048334414,16.8521
1287048394414,16.8146
1287048454414,16.8584
1287048514414,16.8431
1287048574414,16.8495
1287048634414,16.8847
1287048694414,16.8371
1287048754414,16.8696
1287048814414,16.8115
1287048874414,16.8689
1287048934414,16.7464
1287048994414,16.8088
1287049054414,16.7884
1287049114414,16.8218
1287049174414,16.8007
1287049234414,16.8142
1287049294414,16.8295
1287049354414,16.8085
1287049414414,16.8029
1287049474414,16.8135
1287049534414,16.8151
1287049594414,16.8573
1287049654414,16.8385
1287049714414,16.8634
1287049774414,16.8416
1287049834414,16.8841
1287049894414,16.7697
1287049954414,16.8360
1287050014414,16.8590
1287050074414,16.8096
1287050134414,16.8185
1287050194414,16.8159
1287050254414,16.8674
1287050314414,16.8014
1287050374414,16.7956
1287050434424,16.8706
1287050494424,16.8165
1287050554424,16.8323
1287050614424,16.8646
1287050674424,16.8470
1287050734424,16.8900
1287050794424,16.8290
1287050854425,16.8354
1287050914424,16.8159
1287050974424,16.8960
1287051034424,16.8676
1287051094424,16.8717
1287051154424,16.8352
1287051214424,16.7941
1287051274424,16.8599
1287051334424,16.8884
1287051394424,16.8540
1287051454424,16.8439
1287051514424,16.8853
1287051574424,16.8697
1287051634424,16.8752
1287051694424,16.8849
1287051754424,16.8912
1287051814424,16.8900
1287051874424,16.9321
1287051934424,16.9063
1287051994424,16.9501
1287052054424,16.9003
1287052114424,16.9033
1287052174424,16.8579
1287052234424,16.8846
1287052294424,16.8992
1287052354424,16.9418
1287052414424,16.8743
1287052474424,16.8384
1287052534424,16.8908
1287052594424,16.8481
1287052654424,16.8374
1287052714424,16.8695
1287052774424,16.8619
1287052834424,16.8865
1287052894424,16.8932
1287052954424,16.9605
1287053014424,16.8975
1287053074424,16.8862
1287053134424,16.9506
1287053194424,16.9189
1287053254424,16.9440
1287053314424,16.9157
1287053374424,16.8734
1287053434424,16.8325
1287053494424,16.8595
1287053554425,16.8569
1287053614424,16.9263
1287053674424,16.8541
1287053734424,16.8966
1287053794424,16.8932
1287053854424,16.9197
1287053914424,16.9144
1287053974424,16.8934
1287054034435,16.9433
1287054094435,16.9681
1287054154435,16.9725
1287054214435,16.9739
1287054274435,16.9743
1287054334435,16.9735
1287054394435,16.9919
1287054454435,16.9296
1287054514435,16.9025
1287054574435,16.9541
1287054634435,16.9443
1287054694435,16.9310
1287054754435,16.8735
1287054814435,16.9253
1287054874435,16.9037
1287054934435,16.9307
1287054994435,16.9338
1287055054435,16.8919
1287055114435,16.8508
1287055174435,16.9278
1287055234435,16.9020
1287055294435,16.9017
1287055354435,16.8922
1287055414435,16.9272
1287055474435,16.9658
1287055534435,16.8863
1287055594435,16.8714
1287055654435,16.8985
1287055714435,16.9070
1287055774435,16.9093
1287055834435,16.9488
1287055894435,16.9042
1287055954435,16.8536
1287056014435,16.8744
1287056074435,16.8851
1287056134435,16.9342
1287056194435,16.9473
1287056254435,16.8386
1287056314435,16.8341
1287056374435,16.8959
1287056434435,16.8221
1287056494435,16.9167
1287056554435,16.8828
1287056614435,16.8951
1287056674435,16.8725
1287056734435,16.8791
1287056794435,16.8772
1287056854435,16.8407
1287056914435,16.8705
1287056974435,16.8048
1287057034435,16.8478
1287057094435,16.8151
1287057154435,16.8911
1287057214435,16.8417
1287057274435,16.8645
1287057334435,16.8367
1287057394435,16.8562
1287057454435,16.8907
1287057514435,16.8905
1287057574435,16.8604
1287057634446,16.8507
1287057694445,16.8977
1287057754445,16.8434
1287057814445,16.8666
1287057874445,16.8604
1287057934445,16.8938
1287057994445,16.8524
1287058054445,16.8768
1287058114445,16.8424
1287058174445,16.9118
1287058234445,16.8900
1287058294445,16.8814
1287058354445,16.8532
1287058414445,16.9060
1287058474445,16.8763
1287058534445,16.9562
1287058594445,16.8707
1287058654445,17.1045
1287058714445,17.0832
1287058774446,17.0964
1287058834446,16.9945
1287058894446,16.9349
1287058954446,16.9521
1287059014445,16.8857
1287059074445,16.9081
1287059134445,16.9480
1287059194445,16.9876
1287059254445,16.9450
1287059314445,16.9070
1287059374445,16.8970
1287059434445,16.9639
1287059494445,16.9618
1287059554445,16.8911
1287059614445,16.8736
1287059674445,16.8421
1287059734445,16.8878
1287059794445,16.8934
1287059854445,16.8844
1287059914445,16.9261
1287059974445,16.9912
1287060034445,16.9604
1287060094445,16.9425
1287060154446,16.9595
1287060214446,16.9687
1287060274446,16.9609
1287060334446,16.9474
1287060394445,16.9219
1287060454445,16.9902
1287060514445,16.9643
1287060574445,16.9317
1287060634445,16.9577
1287060694445,16.9311
1287060754445,16.9273
1287060814445,16.8917
1287060874445,16.9287
1287060934445,16.9512
1287060994445,16.9086
1287061054445,16.9000
1287061114445,16.8747
1287061174445,16.8810
1287061234456,16.8874
1287061294456,16.9589
1287061354456,16.8426
1287061414456,16.8587
1287061474456,16.9492
1287061534456,16.9312
1287061594456,16.9147
1287061654456,16.9180
1287061714456,16.8529
1287061774456,16.9062
1287061834456,16.8387
1287061894456,16.8850
1287061954456,16.9004
1287062014456,16.8797
1287062074456,16.8872
1287062134456,16.8874
1287062194456,16.9193
1287062254456,16.8888
1287062314456,16.8677
1287062374456,16.8555
1287062434456,16.9732
1287062494456,16.9137
1287062554456,16.9200
1287062614456,16.8685
1287062674456,16.8222
1287062734456,16.9057
1287062794456,16.8707
1287062854456,16.9221
1287062914456,16.9290
1287062974456,16.8518
1287063034456,16.8679
1287063094456,16.9150
1287063154456,16.8840
1287063214456,16.8379
1287063274456,16.8616
1287063334456,16.8555
1287063394456,16.8796
1287063454456,16.8733
1287063514456,16.9267
1287063574456,16.8974
1287063634456,16.8806
1287063694456,16.8672
1287063754456,16.8995
1287063814456,16.8702
1287063874456,16.8655
1287063934456,16.9049
1287063994456,16.8638
1287064054456,16.9353
1287064114456,16.9231
1287064174456,16.9129
1287064234456,16.8749
1287064294456,16.8758
1287064354456,16.8995
1287064414456,16.8983
1287064474456,16.8963
1287064534456,16.9751
1287064594456,16.9796
1287064654456,16.9452
1287064714456,16.9042
1287064774456,16.9713
1287064834467,16.8907
1287064894467,17.0143
1287064954467,16.9558
1287065014467,16.9732
1287065074467,16.9148
1287065134467,16.9332
1287065194467,16.9231
1287065254467,16.8408
1287065314467,16.9171
1287065374467,16.8906
1287065434467,16.8217
1287065494467,16.8528
1287065554467,16.8577
1287065614467,16.9180
1287065674467,16.9059
1287065734467,16.8757
1287065794467,16.9027
1287065854467,16.9312
1287065914467,16.8870
1287065974467,16.8793
1287066034467,16.8753
1287066094467,17.0008
1287066154467,17.1293
1287066214467,17.1200
1287066274467,16.9926
1287066334467,17.0088
1287066394467,17.0395
1287066454467,16.9726
1287066514467,16.9241
1287066574467,16.9678
1287066634467,17.0272
1287066694467,16.9709
1287066754467,16.9654
1287066814467,16.9764
1287066874467,17.0352
1287066934467,17.0273
1287066994467,16.9811
1287067054467,16.9396
1287067114467,16.9745
1287067174467,16.9633
1287067234467,17.0138
1287067294467,16.9751
1287067354467,16.9001
1287067414467,16.9016
1287067474467,16.8916
1287067534467,16.9396
1287067594467,16.9113
1287067654467,16.9313
1287067714467,16.9146
1287067774467,16.9473
1287067834467,16.9025
1287067894467,16.9311
1287067954467,17.0043
1287068014467,16.9736
1287068074467,17.0104
1287068134467,16.9827
1287068194467,16.9414
1287068254467,16.9528
1287068314467,16.9612
1287068374467,16.9589
1287068434479,16.9362
1287068494479,16.9716
1287068554479,16.9761
1287068614479,16.9407
1287068674479,16.9400
1287068734479,16.9109
1287068794479,16.9165
1287068854479,16.9111
1287068914479,16.8430
1287068974479,16.8582
1287069034479,16.8884
1287069094479,16.8684
1287069154479,16.8918
1287069214479,16.9226
1287069274479,16.8784
1287069334479,16.8861
1287069394479,16.9075
1287069454479,16.8676
1287069514479,16.9726
1287069574479,16.9451
1287069634479,16.8861
1287069694479,16.9110
1287069754479,16.8786
1287069814479,16.9530
1287069874479,16.9016
1287069934479,16.8647
1287069994479,16.9580
1287070054479,16.8929
1287070114479,16.9097
1287070174479,16.9242
1287070234479,16.9306
1287070294479,16.9230
1287070354479,16.9219
1287070414479,16.9249
1287070474479,16.8400
1287070534479,16.9094
1287070594479,16.9104
1287070654479,16.9126
1287070714479,16.9067
1287070774479,16.9034
1287070834479,17.0195
1287070894479,16.9486
1287070954479,16.9020
1287071014479,16.9708
1287071074479,16.9169
1287071134479,16.9351
1287071194479,16.9502
1287071254479,16.9120
1287071314479,16.8537
1287071374479,16.9049
1287071434479,16.9200
1287071494479,16.9573
1287071554479,16.8983
1287071614479,16.9377
1287071674479,16.9430
1287071734479,16.9096
1287071794479,16.9662
1287071854479,16.9321
1287071914479,16.9715
1287071974479,16.9748
1287072034490,17.0239
1287072094490,16.9484
1287072154490,16.9415
1287072214490,16.9560
1287072274490,16.9794
1287072334490,16.9872
1287072394490,16.9779
1287072454490,16.9235
1287072514490,16.8851
1287072574490,16.8997
1287072634490,16.8834
1287072694490,16.9266
1287072754490,16.9491
1287072814490,16.9570
1287072874490,16.9868
1287072934490,17.0618
1287072994490,16.9860
1287073054490,17.0076
1287073114490,17.0229
1287073174490,17.0037
1287073234490,16.9467
1287073294490,16.9958
1287073354490,17.1043
1287073414490,16.9180
1287073474490,17.0049
1287073534490,17.0072
1287073594490,17.0373
1287073654490,16.9928
1287073714490,16.9732
1287073774490,16.9958
1287073834490,16.9454
1287073894490,16.9799
1287073954490,16.9905
1287074014490,16.9826
1287074074490,16.9586
1287074134490,16.9079
1287074194490,16.9230
1287074254490,16.9497
1287074314490,16.9367
1287074374490,16.8891
1287074434490,16.9120
1287074494490,16.9699
1287074554490,16.9704
1287074614490,16.9582
1287074674490,16.9416
1287074734490,16.9823
1287074794490,16.9601
1287074854490,16.9802
1287074914490,16.9178
1287074974490,16.9290
1287075034490,16.9155
1287075094490,16.9737
1287075154490,16.8735
1287075214490,16.9431
1287075274490,16.9771
1287075334490,16.9998
1287075394490,16.9785
1287075454490,16.9542
1287075514490,16.9971
1287075574490,17.0908
1287075634501,17.0154
1287075694501,17.0156
1287075754501,16.9774
1287075814501,16.9620
1287075874501,17.0247
1287075934501,16.9209
1287075994501,16.9610
1287076054501,16.9784
1287076114501,17.0149
1287076174501,17.0290
1287076234501,17.0042
1287076294501,16.9164
1287076354501,16.9631
1287076414501,16.9320
1287076474501,16.9522
1287076534501,16.9993
1287076594501,16.9254
1287076654501,16.9361
1287076714501,16.8914
1287076774501,16.9646
1287076834501,16.9615
1287076894501,16.9838
1287076954501,16.9915
1287077014501,16.8637
1287077074501,16.9414
1287077134501,16.9191
1287077194501,16.9485
1287077254501,16.9238
1287077314501,16.8976
1287077374501,17.0157
1287077434501,16.9310
1287077494501,16.9814
1287077554501,16.8871
1287077614501,16.8629
1287077674501,17.0059
1287077734501,16.9886
1287077794501,16.9079
1287077854501,16.9261
1287077914501,16.9694
1287077974501,16.9631
1287078034501,16.9283
1287078094501,16.9590
1287078154501,16.9218
1287078214501,16.9408
1287078274501,16.9581
1287078334501,16.8873
1287078394501,16.9693
1287078454501,16.9246
1287078514501,16.8571
1287078574501,16.9786
1287078634501,16.9712
1287078694501,16.8537
1287078754501,16.9768
1287078814501,16.9111
1287078874501,16.8964
1287078934501,16.9144
1287078994501,16.8776
1287079054501,16.9172
1287079114501,16.9051
1287079174501,16.9188
1287079234512,16.9590
1287079294512,16.8674
1287079354512,16.9438
1287079414512,16.8514
1287079474512,16.9279
1287079534512,16.8917
1287079594512,16.8881
1287079654512,16.9079
1287079714512,16.8866
1287079774512,16.9068